Flag for U.S.A. Weather past 2 weeks in Richmond, Virginia, U.S.A.

Now
74 °F

Scattered clouds.


Feels Like: 76 °F
Forecast: 60 / 78 °F
Wind: 5 mph from Northeast

Location: Richmond International Airport

Current Time: Oct 1, 2014 at 11:24:08 AM

Latest Report: Oct 1, 2014 at 10:54 AM


Visibility: 10 mi

Pressure: 30.03 "Hg

Humidity: 67%

Dew point: 62 °F

Location of RichmondLocation

Historic Weather in Richmond — Graph

°F

Richmond temperature yesterday

Maximum temperature yesterday: 74 °F (at 3:54 PM)
Minimum temperature yesterday: 61 °F (at 10:54 PM)
Average temperature yesterday: 67 °F

Past Weeks' High & Low Weather Summary

 TemperatureHumidityPressure
High90 °F (Sep 21, 3:54 PM)100% (Sep 30, 2:03 AM)30.39 "Hg (Sep 30, 2:03 AM)
Low53 °F (Sep 23, 5:54 AM)31% (Sep 22, 3:54 PM)29.70 "Hg (Sep 21, 5:54 PM)
Average68 °F72%30.11 "Hg
* Reported Sep 16 9:54 AM — Oct 1 9:54 AM, Richmond, Weather by CustomWeather, © 2014

Note: Actual official high and low records may vary slightly from our data, if they occured in-between our weather recording intervals... More about our weather records

Advertising

Richmond weather history for previous 24 hours

 ConditionsComfort  
Time TempWeatherWind HumidityBarometerVisibility
9:54 AM
Oct 1
71 °FPassing clouds.No wind76%30.02 "Hg10 mi
8:54 AM65 °FFog.No wind91%30.01 "Hg6 mi
7:54 AM63 °FFog.5 mph90%30.00 "Hg4 mi
6:54 AM60 °FFog.5 mph93%29.98 "Hg4 mi
5:54 AM62 °FFog.No wind93%29.96 "Hg5 mi
4:54 AM61 °FFog.3 mph90%29.95 "Hg5 mi
3:54 AM61 °FFog.No wind93%29.94 "Hg6 mi
2:54 AM62 °FFog.No wind90%29.94 "Hg5 mi
1:54 AM63 °FFog.No wind90%29.95 "Hg6 mi
12:54 AM64 °FFog.5 mph90%29.95 "Hg6 mi
11:54 PM
Sep 30
62 °FFog.3 mph93%29.95 "Hg6 mi
10:54 PM61 °FFog.No wind93%29.94 "Hg6 mi
9:54 PM63 °FClear.No wind90%29.93 "Hg8 mi
8:54 PM64 °FClear.No wind90%29.92 "Hg9 mi
7:54 PM65 °FClear.No wind87%29.90 "Hg10 mi
6:54 PM68 °FPassing clouds.3 mph78%29.90 "Hg10 mi
5:54 PM71 °FPassing clouds.6 mph73%29.88 "Hg10 mi
4:54 PM74 °FScattered clouds.8 mph67%29.88 "Hg10 mi
3:54 PM74 °FScattered clouds.No wind67%29.89 "Hg10 mi
2:54 PM73 °FPartly sunny.No wind69%29.90 "Hg10 mi
1:54 PM72 °FOvercast.No wind71%29.91 "Hg9 mi
12:54 PM71 °FOvercast.3 mph71%29.93 "Hg9 mi
11:54 AM71 °FPartly sunny.No wind71%29.93 "Hg9 mi
Weather by CustomWeather, © 2014

See weather overviewHow to use our weather pages